Location: Mahannah Oil Field
(37.4664°N, 96.6003°W)
Time: 21:19:05
(UTC+00:00)

Courier 1B - All Passes

Search period start: 21 January 2021 00:00
Search period end: 31 January 2021 00:00
Orbit: 962 x 1209 km, 28.3° (Epoch: 21 January)

Date Brightness Start Highest point End Pass type
(mag) Time Alt. Az. Time Alt. Az. Time Alt. Az.
21 Jan - 05:03:04 10° S 05:05:26 12° SSE 05:07:46 10° SE night (unlit)
21 Jan - 06:53:11 10° SW 06:58:33 28° SSE 07:03:54 10° ESE night (unlit)
21 Jan - 08:46:02 10° WSW 08:51:54 37° S 08:57:53 10° ESE visible
21 Jan - 10:39:45 10° WSW 10:45:18 30° SSW 10:51:02 10° SE visible
21 Jan - 12:35:03 10° WSW 12:38:33 15° SSW 12:42:09 10° S visible
22 Jan - 05:59:56 10° SSW 06:05:01 24° SSE 06:10:00 10° ESE night (unlit)
22 Jan - 07:52:28 10° WSW 07:58:19 36° S 08:04:11 10° ESE night (unlit)
22 Jan - 09:46:02 10° WSW 09:51:44 33° S 09:57:33 10° SE visible
22 Jan - 11:40:40 10° WSW 11:45:00 18° SSW 11:49:26 10° SSE visible
23 Jan - 05:06:52 10° SSW 05:11:28 20° SSE 05:15:58 10° ESE night (unlit)
23 Jan - 06:58:55 10° SW 07:04:44 34° S 07:10:28 10° ESE night (unlit)
23 Jan - 08:52:20 10° WSW 08:58:08 36° S 09:04:01 10° ESE visible
23 Jan - 10:46:34 10° WSW 10:51:27 22° SSW 10:56:25 10° SSE visible
24 Jan - 04:14:04 10° S 04:17:55 16° SSE 04:21:41 10° ESE night (unlit)
24 Jan - 06:05:26 10° SW 06:11:09 31° SSE 06:16:45 10° ESE night (unlit)
24 Jan - 07:58:39 10° WSW 08:04:33 37° S 08:10:26 10° ESE night (unlit)
24 Jan - 09:52:39 10° WSW 09:57:54 26° SSW 10:03:13 10° SE visible
24 Jan - 11:49:27 10° SW 11:51:02 11° SSW 11:52:38 10° SSW visible
25 Jan - 03:21:49 10° S 03:24:22 12° SSE 03:26:51 10° SE visible
25 Jan - 05:12:01 10° SW 05:17:35 28° SSE 05:22:59 10° ESE night (unlit)
25 Jan - 07:04:58 10° WSW 07:10:58 37° S 07:16:50 10° ESE night (unlit)
25 Jan - 08:58:48 10° WSW 09:04:21 30° SSW 09:09:53 10° SE visible
25 Jan - 10:54:08 10° WSW 10:57:31 15° SSW 11:00:55 10° S visible
26 Jan - 04:18:41 10° SSW 04:23:59 24° SSE 04:29:06 10° ESE night (unlit)
26 Jan - 06:11:19 10° WSW 06:17:22 36° S 06:23:13 10° ESE night (unlit)
26 Jan - 08:05:01 10° WSW 08:10:47 34° S 08:16:29 10° SE night (unlit)
26 Jan - 09:59:42 10° WSW 10:03:59 19° SSW 10:08:19 10° SSE visible
27 Jan - 03:25:31 10° SSW 03:30:24 20° SSE 03:35:06 10° ESE visible
27 Jan - 05:17:41 10° SW 05:23:45 34° S 05:29:35 10° ESE night (unlit)
27 Jan - 07:11:13 10° WSW 07:17:11 36° S 07:23:01 10° ESE night (unlit)
27 Jan - 09:05:34 10° WSW 09:10:28 23° SSW 09:15:22 10° SSE night (unlit)
28 Jan - 02:32:38 10° SSW 02:36:47 16° SSE 02:40:50 10° ESE visible
28 Jan - 04:24:05 10° SW 04:30:07 32° SSE 04:35:54 10° ESE night (unlit)
28 Jan - 06:17:26 10° WSW 06:23:35 38° S 06:29:31 10° ESE night (unlit)
28 Jan - 08:11:34 10° WSW 08:16:56 27° SSW 08:22:14 10° SE night (unlit)
28 Jan - 10:08:14 10° SW 10:10:01 11° SSW 10:11:48 10° SSW visible
29 Jan - 01:40:17 10° S 01:43:11 13° SSE 01:46:01 10° SE visible
29 Jan - 03:30:34 10° SW 03:36:30 28° SSE 03:42:08 10° ESE visible
29 Jan - 05:23:40 10° WSW 05:29:58 38° S 05:35:59 10° ESE night (unlit)
29 Jan - 07:17:37 10° WSW 07:23:23 31° SSW 07:28:59 10° SE night (unlit)
29 Jan - 09:12:59 10° WSW 09:16:32 15° SSW 09:20:03 10° S night (unlit)
30 Jan - 02:37:11 10° SSW 02:42:51 24° SSE 02:48:15 10° ESE visible
30 Jan - 04:29:54 10° WSW 04:36:19 37° S 04:42:23 10° ESE visible
30 Jan - 06:23:43 10° WSW 06:29:48 35° S 06:35:38 10° SE night (unlit)
30 Jan - 08:18:30 10° WSW 08:23:01 19° SSW 08:27:28 10° SSE night (unlit)
